Wind_Speed
26 27 29 30 30 29 29 29 29 28 28 28 27 27 26 24 22 21 21 23 24 26 28 28 25 22 19 17 16 15 15 14 14 14 14 14 15 15 15 16 16 17 17 17 18 19 21 21 22 22 22 21 21 23 24 26 26 26 26 26 27 29 29 30 31 30 27 28 30 29 28 29 29 30 31 32 33 33 34 34 35 37 38 39 40
27 29 32 33 31 30 30 31 31 31 30 30 30 29 27 25 23 21 21 22 23 25 26 25 23 20 17 16 15 15 15 15 15 15 16 17 17 16 16 16 17 17 18 18 19 20 21 21 20 20 21 21 22 24 24 25 26 26 27 28 28 29 30 30 31 32 30 28 29 29 29 30 31 30 31 33 34 35 35 35 36 37 38 39 40
29 31 35 36 32 31 32 32 32 32 32 31 31 30 28 25 23 21 21 22 23 25 24 21 19 17 15 14 13 13 13 14 15 16 16 17 18 17 18 18 18 19 19 20 20 21 21 20 19 20 21 22 23 24 24 25 26 27 27 28 28 28 29 30 31 32 32 30 29 29 29 29 31 31 32 35 36 36 36 37 38 39 39 39 40
32 33 36 36 32 30 33 34 33 33 32 32 31 29 27 25 23 21 21 22 24 24 22 18 16 14 13 13 12 12 13 14 15 16 18 19 19 19 19 19 20 20 21 21 21 21 21 20 19 20 22 23 23 24 25 24 25 28 28 28 28 28 28 29 29 30 32 32 29 28 29 30 31 33 34 36 37 37 38 38 39 40 40 39 39
31 33 37 37 32 30 32 35 35 34 33 32 31 29 26 24 22 20 20 23 25 23 19 16 14 14 13 13 13 13 14 15 16 17 19 19 19 19 19 20 21 22 22 23 22 22 21 21 20 22 23 24 24 25 25 25 26 27 28 27 27 28 28 28 28 29 31 32 31 29 30 32 33 34 35 38 39 39 39 39 39 39 40 40 39
29 33 39 39 34 30 31 34 36 36 35 33 31 28 26 24 22 22 23 25 24 19 16 15 14 14 14 14 14 14 15 16 17 18 19 19 19 19 20 21 22 23 24 24 23 23 23 23 22 24 25 25 26 25 25 25 26 27 27 26 27 28 28 28 28 30 31 31 32 31 31 33 34 35 36 39 41 42 43 43 41 40 40 41 41
28 32 40 43 37 30 29 32 36 38 37 35 31 28 26 24 22 22 22 20 17 16 15 15 14 14 15 14 14 15 16 17 18 19 20 21 21 22 22 23 23 24 24 24 23 23 24 24 25 25 26 27 27 26 26 26 26 26 26 27 27 28 29 29 29 30 30 31 32 32 33 33 35 36 37 39 42 44 46 47 46 44 41 41 41
29 32 41 46 38 31 30 31 36 40 38 35 31 28 28 25 23 21 19 16 15 15 15 14 14 14 15 15 16 16 17 18 19 20 21 22 23 24 24 24 24 24 24 23 23 23 25 26 26 26 27 27 27 27 27 27 27 26 26 27 28 28 29 29 29 29 30 31 32 33 33 34 34 36 38 40 43 46 47 48 48 47 44 40 39
28 32 43 47 36 31 34 32 35 40 38 34 32 31 30 28 26 24 19 15 16 15 14 14 13 14 15 16 18 19 20 21 22 22 22 22 23 24 25 24 24 24 23 23 23 24 25 26 26 27 27 27 28 28 28 28 28 27 27 27 28 28 29 29 29 29 30 32 33 33 34 34 34 36 39 40 44 47 49 49 48 48 47 42 38
27 30 39 44 35 32 37 33 32 39 38 35 34 31 29 28 27 23 17 15 15 14 13 14 14 15 16 17 18 20 22 22 22 22 23 23 24 25 26 25 25 24 23 23 23 24 25 26 26 26 27 28 28 29 28 28 28 29 28 28 28 28 29 29 28 29 30 32 33 33 34 34 34 36 39 40 44 48 50 52 52 51 49 46 39
26 26 34 44 39 33 35 31 28 34 37 35 33 32 31 28 22 15 12 14 15 14 14 14 14 15 16 17 18 20 21 21 21 21 23 26 27 28 27 26 26 26 25 25 25 26 26 27 27 26 26 27 28 29 29 28 29 29 29 28 28 28 29 29 28 28 30 32 33 33 34 34 34 35 38 41 45 49 51 53 55 53 51 49 43
25 26 35 46 43 33 31 28 26 33 36 34 35 36 31 22 14 10 11 13 14 15 15 15 15 16 17 17 19 21 22 22 23 24 26 28 30 29 27 25 26 26 27 28 28 29 30 30 29 27 26 27 28 29 29 29 29 29 29 28 28 28 28 29 29 29 30 32 33 33 33 35 35 35 38 42 46 51 53 53 53 54 52 50 47
27 29 36 43 39 31 30 28 27 32 36 38 39 34 25 15 9 10 11 12 15 16 16 16 16 18 19 20 22 24 24 24 24 26 28 30 31 30 26 24 25 26 28 29 30 31 32 32 31 29 27 27 28 29 30 29 28 29 29 28 28 27 27 28 29 31 32 33 33 33 33 34 36 36 38 42 47 51 53 53 53 53 52 51 50
29 30 34 36 32 30 30 28 27 30 35 39 34 25 19 14 9 9 10 12 15 17 16 17 18 19 21 23 25 26 26 27 27 28 29 30 31 30 28 25 25 27 28 30 31 32 32 33 32 29 27 27 29 30 30 29 28 28 28 28 27 26 26 26 28 31 33 33 34 33 32 33 34 36 38 41 46 50 52 54 53 53 52 53 53
28 28 30 30 27 27 29 28 28 28 29 28 21 15 15 12 7 8 10 12 15 16 17 19 20 21 23 26 28 28 28 30 31 31 31 31 31 30 28 27 27 28 29 30 31 32 31 31 32 31 29 29 30 31 31 29 27 27 27 27 27 26 25 26 29 31 31 32 33 33 32 31 32 35 37 41 45 48 51 54 53 52 52 53 54
27 27 27 27 25 25 27 29 29 24 19 18 15 13 11 7 6 8 10 13 15 17 19 20 22 23 25 27 30 31 31 32 33 33 33 33 31 29 28 28 29 29 30 30 31 32 31 30 32 33 32 31 31 30 30 29 28 27 27 26 27 26 25 26 29 31 31 31 32 32 32 31 31 34 37 41 45 48 52 55 53 51 52 53 54
28 28 28 27 24 23 25 26 22 15 13 15 15 10 6 6 8 10 12 15 17 18 19 21 23 24 26 29 31 33 34 34 35 34 34 33 30 27 27 28 29 30 30 30 31 31 31 31 33 34 34 32 30 29 29 29 28 28 27 27 27 26 25 26 28 29 29 29 30 31 31 30 31 33 36 40 43 48 54 57 55 51 50 51 53
30 32 32 28 22 19 18 15 11 11 13 15 13 9 8 9 10 13 16 17 18 19 20 23 24 25 27 29 30 33 34 34 35 35 34 32 29 27 27 29 30 30 31 31 31 32 31 32 34 35 34 31 27 26 27 28 28 28 27 27 27 26 26 27 27 27 27 28 29 30 30 30 31 33 36 39 43 47 54 58 55 51 49 48 49
34 36 33 24 14 9 8 7 9 14 16 15 14 12 11 11 13 16 18 19 21 22 23 26 26 27 29 30 31 32 31 31 33 35 34 32 29 28 29 30 31 32 33 33 33 32 32 33 34 35 33 29 25 24 26 27 27 27 27 28 27 26 26 26 26 26 27 27 28 28 29 29 30 33 35 39 43 47 53 57 54 50 50 48 46
35 35 28 16 6 7 8 11 14 17 16 15 15 14 13 14 16 18 19 20 22 23 26 28 29 29 31 31 31 31 30 30 32 33 33 31 29 29 31 32 32 34 34 34 34 32 32 32 32 31 29 26 24 24 25 26 27 27 27 28 27 26 25 25 25 26 27 27 27 28 29 29 30 32 35 39 44 48 52 55 51 48 50 49 45
31 27 18 9 8 9 11 15 18 18 16 15 15 15 14 15 16 18 20 21 23 23 25 28 29 31 34 33 30 31 31 30 31 32 31 30 30 31 32 33 34 35 35 35 34 32 30 28 27 26 26 24 23 24 24 25 26 26 26 26 26 24 24 24 25 26 26 27 28 29 30 30 31 33 35 39 43 48 52 53 49 45 46 46 44
26 20 12 11 11 11 16 21 21 18 16 16 15 14 14 16 19 21 24 24 24 24 26 28 29 31 34 32 30 32 33 31 30 30 29 29 30 32 33 33 34 35 35 34 33 30 27 24 22 22 23 23 22 23 24 24 24 24 24 24 23 23 24 25 25 26 26 27 29 30 31 32 33 33 35 39 43 48 52 53 48 42 40 39 37
23 19 16 15 15 18 22 23 20 18 17 16 14 13 16 19 22 23 25 25 25 25 27 29 29 30 31 30 29 32 33 31 29 28 28 29 31 32 33 34 34 34 33 32 30 26 23 20 20 20 21 22 22 23 24 23 22 22 22 23 23 24 25 26 26 27 27 28 29 31 31 33 34 34 36 39 42 47 53 53 47 39 35 33 29
21 19 18 18 21 25 24 20 18 17 16 15 15 16 19 22 23 24 25 25 25 26 27 29 29 30 30 29 29 32 32 29 27 28 29 30 31 31 32 33 32 32 31 30 27 24 20 19 19 20 21 22 23 23 23 22 21 22 23 23 24 25 26 26 26 27 28 28 30 31 32 33 34 35 36 38 41 46 52 53 45 35 31 28 24
21 19 19 21 24 25 21 17 16 15 15 16 17 19 21 22 22 23 23 24 25 27 28 28 28 29 29 29 30 31 29 27 27 28 29 29 30 30 30 30 30 29 29 28 26 23 20 19 19 20 21 22 23 23 23 22 22 22 24 24 25 26 26 26 26 27 28 29 30 31 32 32 33 34 36 37 39 44 51 52 44 33 27 22 19
21 18 20 23 23 20 17 15 15 16 16 16 16 18 20 20 20 21 21 23 24 26 26 27 27 28 28 28 29 28 27 27 27 28 28 29 29 28 28 28 28 27 27 26 25 23 21 20 20 20 22 23 24 23 23 22 23 23 24 25 26 27 27 27 27 27 28 29 30 31 32 32 33 34 35 34 36 41 49 52 45 36 30 22 16
20 19 23 24 20 17 17 18 19 18 16 15 16 18 18 18 18 19 20 22 23 23 25 26 26 26 27 27 27 27 26 26 26 27 27 27 27 27 27 26 26 26 26 25 25 24 23 22 21 22 23 24 24 24 23 23 24 24 25 26 27 28 29 29 28 29 29 30 31 32 32 33 33 33 33 31 32 37 46 50 46 39 38 29 16
23 25 26 25 21 20 21 22 20 16 15 16 17 17 17 16 17 18 19 21 22 23 24 25 26 26 26 26 26 26 26 26 26 26 26 26 26 26 25 25 26 26 26 25 25 24 24 23 23 23 24 24 24 24 24 24 25 25 26 27 28 30 30 30 30 30 31 31 32 32 33 32 32 32 30 28 29 34 42 48 46 42 40 34 20
26 27 27 25 22 22 22 19 15 14 15 17 16 15 15 16 17 19 20 21 23 23 24 25 25 25 26 26 26 26 25 25 25 25 25 25 25 25 25 26 26 26 25 25 24 24 24 24 23 23 24 24 24 25 25 26 27 27 27 28 29 30 31 31 31 31 31 32 32 32 32 31 31 30 28 26 26 31 37 44 47 44 40 35 25
26 26 27 25 20 17 15 13 12 14 17 17 16 15 15 16 19 21 22 22 23 24 25 26 25 25 26 26 26 25 25 25 25 25 25 25 24 24 25 26 26 26 25 24 23 23 23 23 22 22 23 23 24 24 26 27 28 28 29 29 30 31 32 31 31 31 31 31 31 31 31 30 29 28 26 24 24 26 32 38 43 45 42 35 28
25 24 23 20 16 13 13 13 13 16 18 17 16 16 17 19 22 24 24 24 24 25 26 26 26 26 26 26 25 24 24 25 25 25 25 24 24 24 25 25 25 24 23 22 21 21 21 22 22 22 22 23 24 25 26 27 28 28 29 29 30 31 31 30 29 29 29 29 29 29 28 27 27 26 24 23 22 23 27 32 37 42 43 38 31
23 20 17 14 13 14 14 14 16 17 18 17 16 16 19 22 25 26 26 25 25 25 26 25 25 25 25 25 24 24 24 24 25 24 24 24 24 24 24 23 22 21 20 19 18 19 20 21 21 22 22 24 25 26 26 26 26 26 27 28 30 31 30 28 27 27 27 27 27 26 25 25 24 24 23 21 20 20 22 27 32 38 42 39 33
19 17 15 13 14 15 16 17 17 17 17 16 16 18 21 23 26 26 26 26 26 26 26 25 25 25 25 24 24 24 24 24 24 24 25 24 23 23 22 21 20 19 18 18 18 19 20 21 22 24 25 25 26 27 26 25 25 26 26 27 28 29 28 27 26 26 25 25 25 24 24 24 23 22 21 20 19 19 19 22 27 33 38 39 36
15 14 15 15 16 17 17 18 18 16 15 15 17 20 22 23 25 26 27 27 27 26 26 25 24 24 24 24 24 23 23 24 24 24 25 24 22 21 20 20 19 18 18 18 19 20 22 23 24 25 25 25 25 25 25 25 26 26 26 26 27 27 27 26 25 25 24 24 24 23 23 23 22 21 19 18 17 17 18 19 22 27 32 37 38
17 17 17 17 18 18 19 19 18 17 16 17 20 23 24 25 26 27 27 27 27 27 25 24 23 23 23 23 23 23 23 23 23 24 24 23 21 19 18 18 18 18 19 20 21 21 22 23 23 22 22 22 22 23 24 25 26 26 27 26 26 25 25 25 24 24 23 22 22 21 21 21 20 19 19 18 17 16 16 16 19 23 27 32 36
20 18 18 18 18 19 19 19 19 18 19 21 24 26 27 26 26 27 27 28 28 27 25 23 23 23 23 23 23 23 22 22 23 23 23 21 19 17 16 16 17 18 20 21 22 22 21 21 21 21 21 21 22 23 23 24 25 26 26 25 24 23 23 22 22 21 20 20 20 19 19 19 18 17 17 17 16 16 15 15 16 19 23 26 31
20 19 18 18 19 20 19 19 19 20 22 24 27 28 27 25 25 27 28 28 29 27 25 23 22 23 23 23 23 23 22 22 22 23 22 20 17 16 15 16 18 19 21 23 23 23 22 21 21 22 22 22 23 23 23 24 24 24 24 23 23 21 20 19 18 17 17 17 17 17 17 17 16 16 16 15 15 14 13 13 13 16 19 21 24
20 21 21 21 22 22 21 20 20 22 26 28 28 27 25 25 26 27 28 29 29 27 25 23 23 23 24 24 23 22 22 21 21 21 20 19 18 17 18 19 20 21 22 23 24 24 23 22 22 23 23 23 23 23 23 22 22 22 21 21 20 18 16 14 14 14 13 14 14 15 15 16 16 16 15 14 14 14 13 12 11 12 14 16 19
26 27 28 27 24 22 22 22 24 28 30 30 28 26 24 25 27 28 29 29 29 26 24 23 23 23 23 23 22 21 20 19 19 19 19 19 20 21 21 22 22 23 23 23 23 24 24 23 23 23 23 23 23 22 21 20 19 19 19 18 16 14 13 11 11 11 11 12 12 13 14 15 16 17 16 14 14 14 14 12 11 10 12 14 16
31 31 31 30 27 26 26 27 28 29 29 27 25 25 25 27 28 29 30 29 27 24 23 22 22 22 21 20 19 18 17 18 19 19 20 21 22 23 24 24 24 24 24 23 23 23 23 23 23 23 23 22 21 20 19 18 17 16 15 13 11 10 10 9 9 9 10 10 11 12 13 14 15 16 16 15 15 15 15 14 12 10 10 12 14
31 32 33 33 33 32 30 28 27 26 25 24 24 25 27 28 29 30 30 28 25 22 21 21 21 20 19 18 17 17 18 18 19 21 22 23 24 25 26 26 25 24 23 22 22 22 22 22 22 22 21 20 19 17 17 16 14 12 10 9 9 8 8 8 9 9 9 10 11 12 12 13 14 15 15 15 16 16 16 16 14 12 10 10 12
31 32 32 33 32 29 27 25 25 24 24 25 26 27 29 29 29 29 27 24 22 20 19 19 18 18 18 18 18 19 20 20 20 21 23 24 26 26 26 25 24 23 22 22 22 22 22 22 21 20 19 18 16 15 14 13 11 9 8 7 7 7 7 8 8 9 10 10 11 12 12 13 13 14 15 15 15 16 16 16 16 14 11 9 9
28 27 27 27 26 25 24 24 24 24 25 26 28 29 29 28 26 25 23 21 19 18 17 17 18 18 19 20 21 21 21 20 20 21 22 24 25 25 25 24 23 22 22 22 22 21 21 20 19 18 17 15 14 13 12 10 8 7 6 6 6 6 7 7 8 9 10 11 12 12 13 13 13 13 14 14 14 15 15 15 16 16 13 10 8
26 25 24 24 24 24 24 24 25 25 26 28 28 29 28 26 23 22 22 20 18 17 18 18 19 21 22 22 22 22 21 20 19 20 21 22 23 24 24 24 22 22 21 21 20 19 18 17 17 16 14 13 12 10 9 8 6 6 6 6 6 6 7 8 10 11 12 12 13 13 13 14 14 13 13 13 13 13 13 13 14 15 15 13 9
23 23 24 24 24 24 23 23 24 26 27 29 29 27 25 23 22 22 21 20 19 19 19 20 20 22 22 22 21 21 21 21 20 20 20 21 21 23 24 24 21 20 20 19 18 17 16 15 15 14 12 11 10 9 8 7 6 5 5 5 6 7 9 10 11 12 13 13 14 14 14 14 13 13 12 12 12 11 11 11 12 13 14 14 12
20 22 24 23 23 23 22 23 24 26 27 27 26 23 22 22 22 22 20 19 19 20 20 20 20 21 21 20 20 21 22 22 21 20 19 19 19 21 23 22 20 18 17 16 15 15 15 14 13 12 11 9 8 8 7 6 6 5 5 5 7 8 9 10 11 12 13 13 14 14 14 14 13 13 13 12 12 11 11 10 10 11 11 13 13
17 20 21 22 22 22 22 23 23 24 24 23 21 20 20 21 21 20 19 19 19 19 19 20 19 19 18 18 19 20 21 21 21 20 19 19 18 18 19 19 18 16 15 14 14 14 14 13 12 11 10 9 8 8 7 6 5 5 5 6 7 8 9 10 11 11 12 12 13 14 14 14 14 13 12 12 12 11 10 10 10 9 10 10 11
18 20 22 23 24 23 22 22 22 21 19 18 18 18 19 19 19 19 19 18 18 18 19 19 19 18 18 18 18 19 19 20 20 20 20 19 18 17 16 16 16 14 12 12 13 14 14 13 11 10 9 9 8 7 7 6 6 5 6 6 6 7 8 9 10 10 11 12 12 13 13 13 14 13 12 12 11 11 10 9 9 8 8 9 9
21 22 23 23 23 22 21 20 18 16 15 15 14 16 17 18 18 18 18 19 19 20 20 21 20 20 19 18 18 18 18 18 19 20 19 18 17 16 16 16 15 14 12 12 13 14 13 12 11 10 10 9 8 7 6 6 6 6 6 6 6 7 7 8 9 10 10 11 11 12 12 12 13 13 12 12 11 10 9 9 8 7 7 7 8
21 21 20 19 19 19 18 17 15 14 14 15 15 17 18 19 19 19 20 20 21 21 22 22 22 21 20 19 18 16 16 17 17 17 17 16 15 15 15 16 15 14 12 12 13 14 13 13 12 11 10 9 8 7 7 7 7 7 7 7 7 7 7 8 9 9 10 10 10 10 11 11 11 12 12 11 11 11 10 9 8 7 7 6 6
17 17 16 16 16 16 15 14 14 14 16 17 18 20 21 21 22 22 23 23 23 23 23 24 23 23 22 20 17 16 15 15 16 16 16 15 14 15 15 16 16 14 12 12 13 14 14 13 12 11 10 9 8 7 8 8 8 8 8 8 8 9 8 8 8 9 9 9 9 9 9 9 10 10 10 11 10 10 10 9 8 7 7 6 6
Wind_Direction
249 249 248 247 248 250 253 256 259 263 267 270 273 276 281 286 293 302 309 317 327 330 327 328 329 327 325 327 328 328 326 323 318 316 314 311 308 307 305 304 305 304 301 298 294 292 292 293 295 296 296 298 300 299 299 299 299 300 301 301 301 301 301 300 299 296 294 295 297 297 296 293 291 292 293 292 293 293 293 294 293 292 288 284 278
251 250 246 243 243 245 250 254 257 262 265 268 271 274 277 281 288 297 306 316 326 329 326 324 325 324 323 326 327 327 326 322 319 317 314 312 312 312 311 309 306 303 299 295 291 290 291 294 296 296 294 295 296 296 296 297 298 299 300 299 299 300 300 301 301 300 297 295 295 296 296 296 296 296 296 295 295 296 297 297 297 295 293 287 281
254 250 244 243 244 243 246 251 255 259 263 266 267 270 273 277 283 291 300 310 318 322 320 319 320 321 320 323 326 327 326 323 321 321 319 318 317 315 313 310 306 301 297 293 291 290 292 296 297 294 292 293 294 294 294 295 297 298 298 297 298 299 300 302 303 303 301 298 297 297 298 298 298 299 298 297 298 300 301 302 301 298 296 291 284
257 253 247 247 251 246 242 246 252 256 259 261 263 266 269 273 278 287 296 306 313 314 312 310 313 314 314 319 325 327 327 328 327 327 326 323 320 315 310 308 304 300 297 294 292 292 293 295 295 293 293 294 295 295 295 296 297 296 296 296 297 298 300 302 305 304 302 300 299 300 300 301 302 302 301 300 301 302 304 303 302 300 298 294 286
261 259 248 245 252 253 246 244 248 252 254 256 258 262 264 268 275 284 294 305 311 309 302 303 308 310 312 317 323 326 326 326 325 325 324 321 319 316 309 306 303 299 296 295 295 296 295 294 293 293 294 295 296 296 297 297 296 295 295 295 296 297 299 302 304 303 302 303 303 302 302 303 303 304 304 304 303 304 304 303 301 299 299 296 289
262 260 251 247 253 259 251 244 244 248 251 252 254 256 258 263 271 281 293 301 303 298 294 302 308 308 313 315 318 322 321 319 318 316 317 317 317 317 313 309 306 300 297 297 297 298 297 294 293 292 293 293 294 296 297 296 295 294 294 295 295 296 298 300 301 301 302 304 305 304 304 303 303 304 306 306 306 305 304 303 300 298 298 298 292
259 261 259 255 256 259 253 245 243 244 247 248 249 250 252 259 268 282 297 300 291 288 293 303 309 308 311 312 315 320 318 316 316 314 315 316 317 319 317 314 310 303 298 298 299 300 299 298 297 294 293 292 292 294 294 293 292 293 295 295 295 296 298 299 300 302 304 304 304 304 304 304 305 306 307 308 307 307 306 305 303 299 296 296 294
259 266 262 255 256 257 253 248 240 238 241 243 242 245 250 255 262 278 299 298 282 287 297 303 308 308 309 313 318 321 319 317 318 318 318 317 316 317 315 313 310 304 299 297 297 299 300 300 299 297 295 294 293 293 292 291 291 293 295 296 295 296 298 299 301 303 303 302 302 304 304 305 307 308 309 309 308 308 309 309 307 303 299 295 292
266 270 264 259 262 258 253 252 241 233 235 238 240 246 250 253 261 274 288 289 281 288 297 302 308 309 312 320 327 329 328 324 321 319 319 318 314 312 310 309 307 302 298 296 295 297 299 300 300 299 298 297 296 294 293 292 293 295 296 296 295 296 297 299 301 302 302 302 302 303 304 306 309 309 309 311 311 311 313 313 310 307 302 297 291
273 273 270 269 271 260 250 249 240 231 232 237 241 246 248 256 270 278 280 281 280 285 296 303 308 311 317 329 335 334 332 328 322 317 315 314 311 307 305 305 305 302 298 295 294 295 297 299 300 299 299 299 298 296 294 293 294 297 298 297 295 295 297 298 300 302 302 301 302 304 306 307 310 310 311 314 315 314 315 315 312 309 304 298 291
276 279 280 274 269 260 252 248 236 229 232 237 238 239 247 261 277 282 274 276 278 286 298 303 306 312 321 329 331 328 328 326 321 313 307 306 306 304 302 303 304 303 300 297 296 295 295 296 296 297 299 300 298 296 294 293 295 297 298 298 297 297 299 300 301 301 301 301 303 305 307 308 310 312 313 315 316 315 316 316 315 312 307 302 296
280 285 283 271 262 262 265 260 241 227 228 233 236 240 251 265 275 272 268 275 283 293 300 301 305 312 318 321 318 316 319 322 319 313 309 307 306 303 300 302 306 306 304 302 300 298 296 293 292 292 296 299 299 296 293 292 293 295 296 297 296 297 300 301 302 302 302 302 304 306 308 310 312 314 316 317 316 316 318 318 317 315 311 307 303
279 279 277 270 265 272 278 270 248 231 228 232 238 247 256 258 254 261 268 279 290 297 301 302 306 310 314 317 314 310 310 310 311 310 309 308 307 302 298 303 308 308 306 304 301 299 297 294 291 291 293 298 299 297 293 291 291 292 294 295 296 297 300 303 304 304 304 305 306 307 310 312 313 316 318 318 317 318 321 321 319 315 311 307 305
271 273 277 279 277 274 271 263 253 245 241 240 244 251 249 237 233 252 267 283 294 299 302 304 307 310 312 313 311 309 305 301 300 302 302 304 306 303 299 302 307 307 305 303 300 298 297 296 295 294 294 297 299 297 293 291 290 292 294 295 296 298 301 303 302 301 303 305 305 307 310 312 314 317 319 319 319 322 325 324 319 313 309 305 303
271 275 282 286 281 267 258 255 255 255 253 253 251 234 223 226 230 244 266 286 295 298 301 304 308 309 308 307 306 306 303 297 295 296 296 300 305 302 297 298 303 305 304 302 299 297 296 295 296 295 296 298 299 297 293 290 291 292 294 295 296 299 302 301 298 298 301 303 304 306 310 313 314 317 320 321 322 325 326 324 320 313 307 303 301
274 276 277 278 275 265 257 255 256 256 256 254 238 208 204 227 238 247 273 289 292 295 299 302 306 306 304 302 302 302 301 296 293 293 293 297 302 299 295 297 303 305 304 302 299 296 294 293 293 293 295 298 298 294 292 291 292 294 295 296 298 300 301 298 296 298 301 302 304 307 311 313 316 318 321 323 326 326 324 323 322 314 308 304 301
274 274 273 270 267 264 261 258 253 245 235 229 219 202 205 235 246 261 278 284 286 291 296 299 303 303 301 300 298 298 296 292 290 291 292 296 300 296 293 297 303 304 303 301 298 296 294 293 292 293 296 298 295 292 291 292 294 296 298 299 300 301 300 296 296 299 301 302 304 307 310 313 315 318 322 326 327 326 323 324 323 316 310 308 303
270 268 269 266 256 253 258 258 240 214 207 207 206 210 226 239 253 268 275 281 286 290 296 299 299 295 294 294 293 292 290 287 286 289 292 296 297 294 293 298 302 302 301 300 299 298 296 295 295 297 297 296 293 291 292 294 296 300 302 302 302 302 300 297 298 300 301 301 304 306 310 312 314 318 324 327 327 325 324 325 323 315 310 309 303
268 265 270 271 255 231 221 208 195 194 193 195 203 217 230 240 253 263 274 284 287 288 291 292 289 289 291 291 289 288 287 287 287 289 293 296 296 293 295 299 300 300 301 302 300 299 297 298 298 297 295 293 292 292 295 298 300 302 302 302 302 302 301 300 301 301 300 301 303 306 308 309 312 318 325 328 327 325 325 325 324 316 308 306 302
268 267 277 279 238 182 174 179 183 185 188 197 211 223 235 242 250 261 273 281 281 282 284 284 286 290 291 289 289 288 288 290 290 291 293 295 294 294 296 298 299 300 302 303 301 299 299 299 296 292 290 291 294 296 299 300 301 301 301 301 302 303 302 303 303 303 302 303 305 307 308 308 312 319 326 329 326 324 326 327 324 316 308 304 299
265 268 277 256 197 177 179 182 184 185 192 208 221 234 246 252 259 267 274 278 280 280 281 282 285 287 284 282 286 290 291 293 292 292 293 293 293 295 296 297 299 301 303 303 301 301 300 297 291 286 286 291 296 299 300 300 299 300 301 302 303 303 303 304 304 303 303 305 306 308 309 311 315 320 325 327 324 323 328 329 325 317 309 305 298
264 261 241 202 185 183 185 185 185 190 201 217 231 246 259 266 272 275 276 280 283 282 281 282 284 286 285 285 287 291 292 293 291 290 291 293 295 296 297 298 300 302 302 302 301 301 300 294 287 284 287 294 299 300 299 298 300 302 303 303 304 304 304 305 305 305 306 307 308 309 311 314 317 320 324 326 323 324 330 333 328 318 309 304 298
255 245 221 201 187 182 183 185 189 198 209 223 239 257 264 266 271 274 276 281 285 284 283 283 284 285 287 288 288 289 290 291 291 291 292 295 296 297 298 300 301 301 301 301 301 301 297 291 287 288 292 298 300 298 296 298 301 303 304 305 306 306 305 306 307 309 309 310 310 312 314 315 317 320 324 325 325 327 333 336 333 324 315 308 297
234 230 224 210 187 175 177 186 196 206 217 231 247 258 261 263 268 273 279 284 286 285 284 285 286 286 286 287 287 287 288 290 292 293 294 296 296 297 299 300 300 300 301 301 302 300 294 289 289 292 296 298 297 295 296 299 303 305 305 306 307 308 308 308 310 310 311 311 312 313 315 317 318 321 324 325 326 330 335 338 337 333 328 317 294
219 223 221 206 183 172 176 190 203 215 228 240 251 258 261 265 271 276 282 284 284 284 283 284 286 286 285 285 285 287 290 292 292 293 293 294 295 297 299 300 300 301 302 302 302 299 293 288 288 292 295 295 294 295 297 300 303 304 305 307 309 310 310 310 311 312 313 313 313 314 316 318 320 322 324 326 327 330 337 341 341 341 338 321 290
215 217 206 194 183 176 179 195 214 226 234 244 257 265 269 275 279 282 285 286 286 285 283 282 283 284 284 285 287 290 292 292 291 291 291 292 294 297 299 300 301 303 303 302 300 298 292 287 287 290 292 292 293 295 297 300 303 304 306 307 310 312 312 311 312 313 314 314 314 315 317 319 321 323 324 326 328 332 338 343 346 351 354 340 307
209 202 192 189 187 183 188 205 221 230 237 251 266 272 275 280 284 285 287 288 288 285 282 282 285 286 287 288 289 290 290 290 290 291 291 293 296 297 299 301 302 303 303 300 297 295 290 286 285 287 290 293 295 297 298 301 303 305 306 307 309 311 312 312 312 313 313 314 315 316 317 318 320 322 323 325 329 334 340 345 348 355 2 360 337
201 193 191 194 198 201 210 222 228 235 249 261 268 273 278 282 287 291 294 294 293 289 286 287 289 289 289 289 289 289 289 289 290 293 294 296 297 298 300 302 302 301 299 296 294 291 288 286 287 289 293 297 299 300 301 302 303 305 306 307 308 310 312 312 313 313 312 313 314 314 315 316 317 319 322 326 331 336 341 347 351 353 1 10 4
199 200 204 209 215 222 229 233 235 244 257 264 269 277 284 291 297 300 301 300 298 294 291 290 289 289 289 289 288 288 288 290 293 296 297 297 298 299 301 301 298 295 292 290 290 289 288 288 290 293 296 299 300 302 302 303 304 306 307 307 307 309 312 312 312 312 311 312 313 312 314 315 315 317 322 325 332 339 342 347 352 353 359 14 23
213 223 226 223 221 224 225 226 237 252 260 266 274 284 293 302 306 307 306 305 303 299 295 292 290 289 288 288 287 288 290 293 295 296 296 296 297 299 300 298 294 289 286 286 288 288 288 289 291 293 296 298 300 302 303 303 304 304 305 306 307 308 311 311 311 311 311 312 313 313 314 315 314 316 322 325 331 342 346 347 352 354 357 11 29
222 230 230 225 219 215 217 229 247 258 262 266 277 289 300 308 310 308 306 306 304 301 297 294 291 289 288 288 289 291 293 294 296 296 295 295 296 298 297 294 290 286 285 286 288 289 289 290 291 293 296 297 299 300 300 301 301 302 303 305 306 307 310 311 311 312 312 312 314 315 315 316 316 315 321 328 331 341 349 349 351 355 357 4 21
225 221 221 226 224 221 232 250 257 257 259 267 279 292 302 308 308 305 302 302 303 302 299 295 292 290 290 291 291 292 293 294 294 295 294 294 296 297 295 291 288 287 288 290 291 290 289 290 292 295 297 297 296 296 298 299 300 301 303 304 305 307 310 311 311 312 313 313 315 317 317 318 319 318 322 330 333 338 348 352 352 355 358 0 11
232 224 228 236 232 233 247 258 256 253 260 273 285 294 301 305 306 303 301 301 302 302 299 296 293 292 292 292 292 292 292 293 293 294 293 294 295 295 292 289 287 288 289 289 289 289 289 291 294 295 296 295 294 295 298 299 300 302 302 303 306 308 310 311 312 313 315 315 316 319 320 321 324 325 326 330 333 336 344 353 354 354 357 0 6
232 237 244 240 232 235 244 247 247 254 269 283 292 299 303 305 304 303 302 301 302 301 299 296 293 292 292 291 290 291 292 293 294 294 293 294 295 294 290 287 284 285 287 287 287 289 291 293 296 296 296 296 295 296 298 298 299 302 303 305 308 310 310 312 314 315 317 317 317 319 321 322 325 328 329 330 333 336 341 349 355 354 355 0 6
243 249 244 231 226 230 236 240 247 258 274 288 297 302 303 303 301 300 300 300 301 300 297 294 292 290 289 289 290 292 294 294 295 294 293 294 295 291 285 281 280 284 287 287 288 291 293 294 296 297 298 299 298 297 298 298 298 301 304 306 308 310 310 312 315 316 317 318 317 318 320 324 327 330 332 332 333 336 339 345 352 356 356 359 5
255 248 232 222 226 232 237 245 256 265 277 289 296 299 299 298 296 296 298 299 299 297 294 291 290 289 288 289 290 292 295 295 295 294 293 292 290 284 279 280 285 290 293 293 293 294 295 296 298 299 300 300 300 299 299 299 298 300 303 305 306 308 310 312 314 317 318 318 319 320 323 327 330 332 333 333 332 334 339 343 347 354 358 360 3
247 231 221 222 229 237 245 257 267 276 285 293 295 294 292 291 290 293 296 298 297 295 293 291 290 289 290 291 292 293 294 293 292 291 291 289 285 281 281 285 290 295 297 298 296 297 297 298 299 300 300 300 300 300 300 299 300 301 302 304 305 307 311 314 316 319 321 322 324 328 330 333 336 336 335 334 333 332 336 342 344 350 358 3 3
222 213 220 229 236 246 255 265 276 285 291 292 291 287 285 286 288 292 296 297 296 294 292 291 291 291 291 292 292 292 290 289 288 288 287 284 281 281 283 287 291 294 297 298 297 296 296 297 298 298 298 298 299 299 299 299 300 301 302 304 307 310 314 319 322 324 328 333 336 338 340 343 344 342 339 338 338 336 335 339 346 348 354 3 6
221 222 229 235 242 251 259 267 277 284 286 285 282 279 280 284 288 293 296 296 293 291 291 290 290 291 292 293 292 291 290 289 288 286 281 277 276 278 282 285 288 291 293 294 294 293 294 295 295 295 296 297 297 298 298 299 301 302 303 305 309 314 318 325 330 332 336 344 346 346 350 353 350 347 347 347 346 344 340 338 341 346 351 359 7
233 234 238 243 251 260 266 270 275 278 277 276 275 277 281 286 289 293 295 293 289 288 289 289 289 291 291 292 293 294 294 292 289 285 281 277 277 278 281 283 285 287 288 289 290 290 291 292 292 293 295 295 295 296 300 302 302 303 304 306 311 317 322 328 334 335 339 348 352 352 355 358 354 351 353 356 355 352 349 345 341 343 351 357 4
239 243 248 254 261 265 268 270 272 272 273 274 276 279 283 286 289 292 291 287 285 286 287 287 288 289 289 290 292 294 293 291 287 283 280 278 278 279 281 283 285 285 285 286 288 288 288 289 290 291 291 292 294 297 300 301 300 299 300 304 310 318 323 327 332 336 340 348 355 355 354 355 354 353 355 360 2 1 357 352 349 347 347 352 359
247 253 257 259 261 262 264 266 269 270 273 275 276 279 283 286 290 290 287 283 283 284 284 284 285 285 286 288 291 291 289 287 284 281 279 279 279 280 282 285 285 285 286 287 287 286 286 286 287 287 287 289 292 295 295 295 294 293 295 302 310 316 322 327 331 336 341 345 349 350 349 347 349 351 353 357 3 5 3 358 356 355 352 347 350
254 258 257 256 256 258 263 267 269 270 272 273 276 280 285 288 288 286 281 279 281 281 280 281 283 284 286 289 289 288 287 286 284 281 279 278 279 281 282 283 284 285 287 287 285 283 283 283 283 283 285 286 288 287 285 284 284 286 291 300 308 315 323 330 330 331 337 340 339 339 338 338 339 344 348 352 356 2 4 2 360 359 359 356 349
254 256 255 256 259 263 266 269 270 271 272 275 279 284 286 285 280 275 274 276 279 279 278 279 282 284 286 287 287 288 288 287 285 282 279 278 278 279 280 282 284 286 287 286 283 280 280 280 280 280 281 280 278 276 274 274 276 282 288 295 306 316 323 327 327 328 332 334 331 329 329 329 330 335 340 343 347 353 359 2 2 2 3 3 359
254 257 259 261 264 266 268 271 273 275 277 279 282 283 281 277 272 271 272 275 277 278 278 279 280 282 284 286 288 290 291 292 290 288 284 281 279 278 278 281 283 286 285 283 280 278 277 277 276 275 272 268 266 265 265 267 270 275 282 292 305 315 320 322 323 326 328 327 325 325 326 325 327 331 333 334 336 342 349 356 2 4 5 6 6
254 260 263 265 266 269 272 275 277 279 280 282 282 278 273 271 271 274 276 277 278 279 281 282 283 283 285 288 290 292 294 297 299 298 296 292 285 278 276 278 280 281 281 278 276 275 274 272 269 265 258 254 255 257 259 262 265 271 282 296 305 311 316 319 320 321 323 324 323 324 326 327 328 331 334 332 331 336 343 349 356 2 5 6 9
265 265 265 267 270 273 276 277 279 281 281 281 279 275 272 273 275 278 280 281 281 283 286 288 289 289 289 289 291 293 297 302 305 307 308 306 296 281 272 270 270 272 274 275 271 267 264 262 259 254 249 248 248 249 250 253 260 271 286 298 305 309 314 317 318 318 321 323 325 326 328 330 333 335 337 335 332 334 339 343 347 356 4 7 10
273 271 270 271 273 275 276 277 278 280 280 280 278 276 275 277 279 282 284 287 288 290 291 292 292 293 293 293 294 295 298 303 308 310 311 310 299 281 265 260 258 259 264 268 264 258 255 253 250 246 243 241 239 240 243 250 262 275 285 294 303 309 313 315 317 319 321 323 326 327 329 332 336 339 341 341 338 336 337 338 340 348 360 7 11
274 274 273 273 273 273 274 274 275 276 275 275 274 274 274 277 280 283 286 288 289 290 291 291 292 293 294 292 293 296 299 302 306 308 307 303 292 275 261 253 251 249 251 256 255 251 250 250 247 242 238 234 231 234 242 253 265 275 284 292 300 307 312 314 316 319 321 322 325 327 330 333 337 340 343 345 344 343 342 340 339 344 353 3 11
276 277 275 272 270 269 269 268 268 268 269 270 270 271 272 273 275 278 280 281 283 285 287 289 291 292 291 289 290 295 299 302 303 303 302 297 286 270 255 248 245 242 242 246 248 247 247 248 244 238 232 228 228 235 245 255 265 273 282 292 300 304 309 313 314 315 318 321 323 325 328 332 336 339 341 343 346 349 350 347 344 344 349 356 7
276 276 274 270 268 266 264 263 265 268 271 272 272 273 274 275 277 279 280 282 283 286 288 291 294 295 294 293 294 299 303 304 303 302 301 297 286 270 252 243 240 240 239 240 242 244 245 244 241 235 231 229 229 235 244 254 264 272 280 291 299 301 303 307 308 308 311 316 318 321 325 328 331 334 336 339 343 348 350 350 350 347 346 347 355
Height
3174 3175 3175 3176 3176 3177 3177 3177 3177 3178 3177 3177 3176 3176 3176 3175 3174 3173 3172 3171 3170 3169 3168 3167 3166 3164 3162 3160 3159 3157 3156 3155 3154 3154 3153 3153 3152 3151 3149 3148 3147 3147 3146 3145 3144 3143 3142 3141 3139 3138 3136 3135 3134 3132 3131 3130 3128 3127 3126 3124 3123 3121 3119 3118 3115 3115 3115 3113 3110 3110 3110 3108 3108 3108 3106 3104 3103 3102 3101 3099 3097 3095 3094 3092 3091
3171 3171 3172 3172 3174 3175 3175 3174 3174 3175 3175 3174 3174 3173 3173 3172 3172 3171 3170 3169 3168 3167 3167 3165 3164 3162 3160 3159 3157 3156 3154 3153 3152 3151 3151 3150 3149 3148 3147 3146 3145 3144 3143 3142 3141 3140 3139 3138 3137 3136 3134 3132 3131 3130 3128 3127 3125 3124 3123 3121 3120 3118 3116 3114 3112 3110 3109 3110 3108 3106 3106 3104 3103 3103 3101 3099 3098 3096 3095 3094 3092 3090 3088 3086 3084
3167 3167 3167 3168 3169 3171 3170 3170 3170 3171 3171 3171 3171 3170 3170 3169 3169 3168 3168 3167 3166 3166 3165 3164 3162 3160 3159 3157 3156 3154 3153 3152 3150 3150 3149 3148 3147 3146 3144 3143 3142 3141 3140 3139 3138 3137 3136 3136 3135 3133 3131 3130 3129 3127 3126 3125 3123 3121 3120 3118 3117 3116 3113 3111 3109 3106 3104 3104 3104 3103 3102 3101 3099 3098 3097 3095 3093 3091 3089 3088 3086 3084 3082 3080 3078
3162 3162 3163 3163 3164 3164 3165 3165 3166 3166 3167 3168 3168 3168 3167 3167 3166 3166 3165 3164 3164 3164 3163 3162 3160 3159 3158 3156 3155 3153 3152 3150 3149 3148 3147 3146 3145 3144 3142 3141 3139 3138 3137 3136 3135 3134 3134 3133 3132 3130 3128 3127 3126 3125 3123 3122 3120 3118 3117 3116 3114 3112 3110 3108 3106 3103 3100 3099 3100 3099 3097 3096 3095 3094 3092 3090 3088 3087 3084 3082 3080 3078 3076 3074 3072
3158 3159 3159 3159 3160 3161 3160 3161 3162 3162 3163 3164 3164 3165 3165 3164 3163 3163 3162 3162 3162 3162 3161 3160 3158 3157 3156 3154 3153 3151 3150 3148 3147 3147 3146 3144 3143 3142 3140 3138 3137 3136 3135 3134 3132 3131 3130 3130 3129 3127 3125 3124 3123 3122 3120 3119 3117 3116 3114 3112 3111 3109 3107 3105 3103 3100 3097 3095 3095 3094 3093 3092 3090 3089 3087 3084 3082 3081 3079 3077 3075 3072 3070 3068 3066
3154 3155 3154 3154 3155 3156 3156 3156 3157 3159 3160 3160 3160 3161 3161 3160 3160 3160 3160 3160 3160 3160 3158 3157 3155 3154 3154 3152 3151 3149 3148 3147 3146 3145 3144 3142 3141 3140 3138 3136 3135 3134 3133 3131 3130 3129 3127 3126 3126 3124 3123 3121 3120 3118 3117 3115 3114 3112 3111 3109 3107 3105 3104 3102 3100 3097 3094 3092 3090 3090 3089 3087 3086 3085 3084 3080 3077 3074 3072 3070 3069 3068 3065 3062 3059
3150 3150 3149 3147 3149 3150 3151 3152 3152 3154 3155 3155 3156 3157 3157 3157 3157 3157 3157 3157 3158 3157 3155 3154 3152 3152 3151 3149 3148 3147 3145 3145 3144 3143 3141 3140 3139 3137 3136 3134 3133 3132 3130 3129 3127 3126 3124 3123 3122 3121 3119 3118 3116 3115 3113 3112 3111 3109 3107 3105 3104 3102 3100 3098 3096 3094 3091 3089 3087 3086 3085 3083 3082 3080 3079 3076 3073 3070 3066 3062 3060 3060 3059 3057 3053
3145 3146 3143 3141 3143 3145 3146 3147 3147 3148 3150 3151 3151 3152 3153 3153 3153 3154 3155 3155 3155 3154 3152 3151 3150 3149 3148 3147 3145 3144 3143 3142 3141 3140 3139 3138 3136 3135 3133 3132 3130 3129 3128 3126 3125 3123 3121 3120 3119 3117 3115 3114 3112 3111 3110 3108 3107 3105 3104 3102 3100 3098 3097 3095 3093 3091 3088 3086 3084 3083 3081 3080 3079 3076 3074 3072 3068 3064 3061 3057 3053 3050 3050 3050 3048
3142 3142 3138 3136 3140 3141 3140 3141 3142 3143 3145 3147 3148 3149 3150 3150 3150 3151 3153 3154 3153 3152 3150 3148 3148 3147 3145 3144 3142 3141 3140 3139 3138 3137 3137 3136 3134 3133 3131 3129 3127 3126 3124 3123 3122 3120 3118 3117 3115 3114 3112 3110 3108 3107 3106 3104 3102 3101 3100 3099 3097 3095 3093 3091 3089 3087 3085 3082 3080 3079 3077 3076 3075 3072 3069 3067 3063 3058 3055 3051 3048 3044 3041 3040 3041
3137 3136 3134 3132 3134 3134 3133 3134 3137 3140 3142 3144 3146 3147 3147 3147 3148 3149 3150 3151 3150 3149 3147 3146 3145 3144 3143 3142 3140 3138 3137 3136 3135 3135 3134 3133 3132 3130 3128 3127 3125 3123 3121 3120 3118 3117 3115 3114 3112 3110 3109 3107 3105 3103 3102 3100 3099 3097 3096 3095 3093 3091 3089 3088 3086 3084 3081 3079 3077 3075 3073 3072 3071 3068 3064 3062 3057 3052 3049 3045 3040 3038 3034 3030 3032
3133 3132 3131 3127 3127 3129 3130 3134 3137 3138 3140 3142 3144 3144 3144 3146 3147 3147 3147 3148 3148 3146 3145 3143 3142 3141 3141 3139 3138 3136 3134 3133 3132 3132 3131 3130 3129 3127 3126 3124 3122 3120 3118 3116 3115 3114 3112 3111 3109 3107 3106 3104 3102 3100 3098 3097 3095 3094 3092 3091 3089 3088 3086 3084 3082 3081 3078 3075 3073 3072 3069 3067 3066 3064 3061 3057 3052 3047 3044 3040 3034 3031 3028 3023 3021
3130 3130 3128 3124 3125 3129 3133 3136 3138 3137 3138 3139 3139 3140 3143 3145 3145 3145 3145 3146 3145 3143 3142 3141 3140 3139 3138 3137 3136 3134 3133 3131 3130 3129 3128 3127 3125 3124 3123 3121 3119 3117 3115 3113 3111 3110 3109 3107 3106 3104 3103 3100 3098 3097 3095 3094 3092 3090 3089 3088 3086 3085 3082 3080 3078 3077 3075 3072 3070 3069 3066 3063 3061 3060 3057 3052 3047 3042 3038 3035 3030 3025 3021 3018 3014
3127 3126 3124 3123 3127 3130 3131 3132 3134 3133 3134 3134 3134 3137 3141 3142 3142 3143 3143 3143 3142 3141 3139 3138 3138 3137 3136 3135 3134 3133 3131 3130 3128 3127 3126 3125 3122 3120 3119 3118 3116 3114 3112 3110 3108 3106 3105 3103 3102 3101 3099 3097 3095 3093 3091 3090 3089 3087 3086 3085 3083 3082 3080 3077 3075 3072 3070 3068 3066 3065 3064 3060 3057 3055 3053 3049 3043 3038 3033 3029 3025 3020 3016 3013 3009
3121 3120 3119 3121 3125 3125 3124 3124 3125 3127 3128 3129 3131 3135 3138 3137 3138 3140 3141 3140 3139 3138 3137 3136 3136 3135 3134 3133 3132 3131 3129 3128 3126 3125 3124 3122 3119 3117 3115 3114 3112 3111 3109 3107 3105 3103 3101 3099 3097 3096 3095 3093 3091 3089 3087 3087 3086 3084 3083 3082 3080 3079 3077 3075 3072 3069 3067 3065 3063 3061 3060 3058 3054 3051 3049 3046 3040 3034 3027 3023 3019 3015 3010 3006 3003
3117 3117 3116 3118 3119 3118 3117 3117 3118 3121 3123 3126 3130 3133 3134 3134 3135 3137 3137 3137 3136 3135 3134 3134 3133 3133 3133 3132 3130 3129 3127 3125 3123 3122 3121 3118 3116 3114 3112 3110 3109 3108 3106 3104 3101 3099 3097 3095 3093 3092 3091 3089 3088 3085 3083 3083 3082 3081 3080 3079 3077 3076 3074 3072 3069 3067 3064 3062 3060 3058 3057 3055 3052 3048 3045 3042 3036 3030 3024 3020 3016 3010 3004 2999 2997
3114 3112 3111 3112 3113 3112 3112 3113 3116 3119 3122 3125 3127 3129 3131 3132 3133 3133 3134 3134 3133 3133 3132 3132 3131 3131 3131 3129 3127 3126 3124 3122 3120 3118 3117 3115 3113 3110 3108 3107 3105 3104 3102 3100 3098 3095 3093 3092 3090 3088 3086 3085 3084 3082 3080 3079 3078 3077 3076 3075 3074 3073 3071 3069 3066 3064 3062 3059 3057 3055 3053 3051 3048 3045 3042 3037 3032 3026 3020 3016 3012 3006 2998 2993 2989
3109 3106 3104 3105 3107 3108 3109 3111 3114 3118 3120 3123 3125 3127 3128 3129 3130 3131 3132 3131 3131 3130 3130 3129 3129 3129 3128 3126 3124 3123 3121 3119 3117 3114 3113 3111 3109 3107 3105 3103 3101 3100 3098 3096 3094 3091 3090 3088 3086 3083 3082 3081 3080 3078 3076 3075 3074 3074 3073 3072 3070 3069 3068 3066 3063 3061 3059 3057 3055 3052 3050 3048 3045 3042 3039 3034 3029 3024 3016 3010 3006 3000 2993 2987 2982
3104 3100 3098 3099 3101 3102 3105 3108 3111 3114 3116 3120 3123 3125 3126 3127 3128 3129 3130 3129 3128 3128 3127 3127 3127 3126 3124 3122 3120 3118 3117 3115 3113 3111 3109 3108 3105 3103 3101 3099 3097 3095 3093 3092 3090 3088 3086 3084 3082 3079 3078 3077 3076 3074 3073 3072 3071 3070 3069 3068 3067 3066 3064 3062 3060 3058 3056 3054 3052 3049 3047 3045 3042 3039 3035 3031 3027 3022 3014 3006 3000 2994 2988 2983 2977
3099 3095 3095 3098 3098 3099 3103 3106 3108 3111 3114 3118 3121 3123 3124 3124 3126 3127 3127 3127 3126 3125 3124 3124 3123 3122 3120 3118 3116 3114 3113 3111 3109 3107 3106 3104 3102 3099 3097 3095 3093 3091 3089 3088 3086 3085 3083 3081 3078 3075 3073 3073 3072 3071 3070 3069 3068 3067 3065 3064 3063 3062 3060 3058 3056 3055 3053 3051 3049 3047 3045 3042 3039 3035 3032 3028 3023 3019 3012 3004 2997 2989 2982 2978 2973
3095 3094 3097 3101 3100 3099 3103 3106 3107 3110 3113 3116 3119 3121 3121 3122 3123 3124 3125 3124 3122 3121 3121 3120 3119 3118 3116 3114 3113 3111 3109 3108 3106 3104 3102 3100 3098 3096 3093 3091 3089 3087 3085 3084 3082 3081 3079 3077 3075 3072 3070 3069 3069 3068 3067 3066 3064 3063 3062 3060 3059 3058 3056 3055 3053 3050 3049 3047 3045 3043 3041 3038 3035 3031 3027 3024 3019 3015 3009 3002 2994 2986 2978 2972 2968
3092 3093 3098 3101 3100 3099 3102 3105 3107 3109 3112 3114 3116 3118 3118 3119 3120 3121 3121 3120 3118 3118 3117 3116 3115 3114 3112 3111 3110 3108 3106 3104 3102 3100 3099 3096 3094 3092 3089 3087 3085 3083 3082 3080 3079 3077 3075 3074 3071 3069 3067 3067 3067 3066 3064 3063 3061 3060 3059 3057 3056 3054 3052 3051 3049 3047 3045 3043 3041 3039 3036 3033 3030 3027 3023 3019 3015 3010 3004 2997 2989 2982 2974 2967 2962
3090 3092 3095 3097 3097 3098 3101 3104 3106 3108 3110 3112 3114 3115 3116 3117 3117 3118 3118 3117 3115 3115 3113 3112 3111 3109 3107 3106 3105 3103 3101 3100 3099 3097 3095 3093 3090 3088 3086 3084 3082 3080 3079 3077 3075 3073 3071 3070 3068 3067 3066 3065 3064 3063 3061 3060 3059 3057 3056 3054 3052 3051 3049 3047 3045 3043 3042 3039 3037 3035 3032 3028 3025 3022 3019 3015 3011 3005 2999 2992 2984 2976 2969 2963 2958
3088 3091 3093 3094 3093 3095 3099 3102 3104 3106 3108 3110 3111 3113 3114 3114 3115 3115 3115 3113 3112 3111 3109 3108 3107 3105 3103 3102 3100 3098 3097 3096 3094 3093 3091 3088 3086 3084 3082 3081 3079 3077 3075 3073 3072 3070 3068 3067 3066 3065 3063 3062 3061 3060 3059 3057 3056 3055 3053 3051 3050 3048 3046 3044 3042 3040 3038 3035 3033 3030 3028 3024 3021 3018 3015 3011 3006 3000 2994 2986 2979 2971 2963 2958 2954
3086 3089 3092 3092 3091 3092 3097 3101 3103 3105 3107 3108 3109 3111 3111 3111 3111 3111 3111 3109 3108 3107 3105 3104 3102 3101 3099 3098 3096 3094 3093 3091 3090 3088 3086 3084 3082 3081 3079 3077 3075 3073 3072 3070 3068 3067 3065 3064 3063 3062 3061 3060 3058 3057 3056 3055 3054 3052 3050 3049 3047 3045 3043 3040 3038 3036 3034 3032 3029 3027 3024 3021 3018 3014 3011 3007 3002 2996 2990 2983 2976 2968 2959 2953 2950
3085 3088 3090 3092 3091 3091 3095 3099 3102 3104 3105 3107 3107 3108 3109 3108 3108 3107 3106 3105 3103 3102 3101 3100 3098 3096 3095 3093 3091 3089 3088 3087 3085 3084 3082 3081 3079 3078 3076 3074 3072 3070 3068 3066 3065 3063 3062 3062 3061 3060 3058 3057 3056 3055 3054 3052 3051 3049 3048 3046 3044 3042 3040 3037 3035 3033 3031 3028 3026 3023 3021 3018 3015 3011 3008 3004 2999 2994 2988 2980 2973 2965 2957 2951 2947
3084 3087 3090 3092 3091 3090 3093 3097 3100 3102 3103 3104 3105 3106 3106 3105 3104 3103 3102 3100 3099 3098 3096 3095 3094 3092 3090 3089 3087 3085 3084 3083 3082 3080 3079 3077 3076 3074 3072 3070 3068 3066 3064 3063 3062 3061 3060 3059 3058 3057 3055 3054 3053 3052 3051 3050 3048 3047 3045 3044 3042 3040 3037 3035 3032 3030 3027 3025 3023 3020 3017 3015 3012 3009 3005 3002 2997 2992 2985 2978 2970 2962 2955 2949 2945
3083 3085 3088 3089 3089 3089 3091 3094 3097 3098 3099 3101 3102 3102 3102 3101 3100 3099 3097 3096 3094 3093 3092 3090 3089 3087 3086 3084 3082 3081 3081 3080 3078 3077 3075 3074 3072 3070 3068 3066 3064 3062 3061 3060 3059 3058 3057 3056 3055 3054 3053 3052 3050 3049 3048 3047 3046 3044 3042 3041 3039 3037 3035 3032 3029 3026 3024 3022 3019 3017 3014 3011 3009 3006 3003 3000 2995 2990 2985 2977 2969 2963 2956 2950 2945
3081 3084 3085 3085 3085 3085 3088 3091 3093 3095 3096 3098 3098 3098 3098 3097 3096 3094 3093 3092 3090 3089 3087 3086 3085 3083 3082 3081 3079 3078 3078 3076 3075 3073 3071 3069 3068 3066 3064 3063 3061 3060 3058 3057 3056 3055 3054 3053 3052 3051 3050 3049 3048 3047 3045 3044 3043 3042 3040 3038 3036 3034 3032 3029 3026 3023 3021 3018 3016 3014 3011 3009 3006 3003 3001 2998 2993 2989 2984 2978 2970 2964 2958 2951 2945
3081 3082 3082 3081 3081 3083 3086 3089 3091 3092 3094 3094 3094 3094 3093 3092 3091 3090 3089 3087 3086 3085 3083 3082 3081 3080 3079 3077 3076 3075 3074 3073 3071 3069 3067 3066 3064 3062 3061 3060 3058 3057 3056 3055 3053 3053 3051 3051 3050 3049 3048 3047 3045 3044 3043 3041 3040 3039 3037 3035 3034 3032 3029 3026 3024 3021 3018 3016 3013 3011 3008 3006 3004 3001 2999 2996 2992 2988 2983 2978 2971 2965 2959 2952 2946
3080 3080 3080 3080 3081 3083 3084 3086 3088 3090 3091 3091 3091 3090 3089 3088 3087 3086 3085 3084 3082 3081 3080 3079 3078 3076 3075 3074 3073 3071 3070 3068 3067 3065 3064 3062 3061 3060 3058 3057 3056 3054 3053 3052 3051 3050 3049 3048 3047 3047 3046 3044 3043 3042 3040 3039 3038 3036 3034 3033 3031 3029 3026 3024 3021 3019 3016 3013 3011 3008 3006 3003 3001 2999 2996 2994 2991 2988 2983 2978 2973 2967 2961 2953 2947
3077 3077 3078 3079 3080 3080 3081 3083 3085 3087 3087 3087 3087 3086 3085 3084 3083 3083 3082 3080 3079 3078 3077 3075 3074 3073 3071 3070 3068 3067 3065 3064 3063 3061 3060 3059 3058 3057 3056 3054 3053 3051 3050 3050 3049 3048 3047 3046 3045 3044 3043 3042 3040 3039 3038 3037 3035 3033 3032 3030 3028 3026 3024 3021 3019 3016 3014 3012 3009 3006 3004 3001 2999 2996 2994 2992 2989 2986 2983 2980 2975 2969 2963 2957 2950
3074 3075 3076 3077 3077 3078 3078 3080 3082 3083 3083 3083 3083 3082 3081 3081 3080 3080 3079 3077 3076 3074 3073 3071 3070 3069 3067 3065 3064 3063 3062 3060 3059 3058 3057 3056 3055 3054 3052 3051 3050 3049 3048 3047 3046 3045 3044 3044 3043 3042 3041 3039 3038 3036 3035 3033 3032 3030 3029 3027 3026 3024 3022 3019 3017 3014 3012 3010 3008 3005 3002 3000 2997 2995 2992 2990 2988 2985 2983 2980 2976 2971 2965 2960 2955
3072 3073 3073 3074 3075 3075 3076 3077 3079 3079 3080 3080 3079 3078 3078 3077 3077 3076 3075 3074 3072 3070 3069 3067 3066 3064 3063 3061 3060 3059 3058 3057 3056 3055 3054 3053 3052 3051 3049 3048 3047 3046 3045 3045 3044 3043 3042 3042 3041 3040 3038 3037 3035 3033 3032 3030 3029 3027 3026 3025 3023 3022 3020 3017 3015 3013 3010 3008 3006 3003 3001 2998 2996 2993 2991 2989 2986 2984 2982 2980 2976 2972 2968 2963 2958
3070 3071 3071 3071 3072 3073 3074 3075 3075 3076 3075 3075 3074 3074 3073 3073 3073 3072 3071 3069 3068 3066 3065 3063 3062 3060 3059 3058 3056 3056 3055 3054 3053 3052 3050 3049 3049 3048 3046 3045 3044 3043 3043 3042 3041 3041 3040 3039 3038 3037 3035 3034 3032 3030 3029 3027 3026 3024 3023 3022 3020 3019 3017 3015 3012 3010 3008 3006 3004 3001 2999 2997 2994 2992 2990 2988 2986 2984 2981 2979 2977 2973 2970 2965 2960
3067 3068 3068 3068 3069 3070 3071 3071 3071 3071 3071 3070 3070 3070 3069 3069 3068 3067 3066 3065 3064 3062 3061 3060 3058 3057 3055 3054 3053 3052 3051 3051 3050 3048 3047 3046 3045 3044 3044 3043 3042 3041 3040 3040 3039 3038 3037 3036 3035 3034 3032 3031 3029 3028 3026 3025 3023 3021 3020 3019 3018 3016 3015 3012 3010 3008 3006 3005 3002 3000 2998 2995 2993 2991 2988 2986 2984 2983 2981 2979 2977 2974 2971 2967 2963
3063 3064 3065 3065 3066 3067 3067 3067 3067 3067 3067 3066 3066 3066 3065 3065 3064 3063 3062 3061 3060 3058 3057 3056 3055 3053 3052 3051 3050 3049 3048 3047 3046 3045 3043 3042 3042 3041 3041 3040 3040 3039 3038 3037 3036 3035 3034 3033 3032 3031 3030 3028 3027 3025 3024 3022 3020 3019 3018 3017 3015 3014 3012 3010 3008 3007 3005 3003 3001 2999 2996 2994 2992 2990 2987 2985 2983 2982 2980 2979 2977 2974 2972 2969 2966
3059 3061 3062 3062 3063 3063 3063 3063 3063 3063 3063 3062 3062 3062 3061 3061 3060 3059 3058 3057 3056 3054 3053 3052 3051 3049 3048 3047 3046 3045 3044 3044 3042 3041 3040 3039 3038 3038 3038 3038 3037 3037 3036 3035 3034 3033 3031 3030 3029 3028 3027 3026 3024 3023 3021 3020 3018 3017 3015 3014 3013 3011 3010 3008 3007 3005 3004 3002 3000 2998 2995 2993 2991 2989 2987 2985 2983 2981 2980 2979 2977 2976 2974 2971 2968
3056 3057 3058 3058 3058 3058 3059 3059 3059 3059 3059 3059 3059 3058 3058 3057 3056 3055 3054 3053 3051 3050 3049 3048 3047 3045 3044 3043 3043 3042 3041 3040 3039 3037 3036 3036 3035 3035 3035 3035 3034 3034 3033 3032 3031 3030 3028 3027 3026 3025 3024 3023 3021 3020 3019 3017 3016 3015 3013 3012 3010 3009 3008 3007 3005 3004 3002 3001 2999 2997 2995 2993 2991 2989 2987 2985 2982 2981 2979 2978 2977 2976 2975 2973 2970
3052 3053 3053 3053 3054 3054 3054 3055 3056 3056 3056 3056 3055 3055 3054 3053 3052 3051 3050 3048 3047 3046 3045 3044 3042 3041 3040 3040 3039 3038 3037 3036 3035 3034 3034 3033 3033 3032 3032 3032 3031 3031 3030 3029 3028 3027 3026 3024 3023 3022 3021 3020 3018 3017 3016 3015 3014 3013 3011 3010 3008 3007 3006 3005 3004 3003 3001 3000 2998 2996 2994 2992 2990 2989 2987 2984 2982 2981 2979 2978 2977 2976 2975 2973 2971
3049 3049 3050 3050 3051 3051 3051 3052 3053 3053 3053 3052 3051 3051 3050 3049 3048 3047 3045 3044 3043 3042 3041 3040 3038 3038 3037 3036 3035 3034 3033 3032 3032 3031 3031 3030 3030 3029 3029 3028 3028 3027 3027 3026 3025 3024 3023 3021 3020 3018 3017 3016 3015 3014 3014 3013 3012 3010 3009 3008 3007 3006 3005 3004 3003 3002 3001 2999 2998 2996 2994 2992 2991 2989 2987 2985 2983 2981 2979 2978 2977 2976 2975 2973 2972
3045 3046 3047 3047 3048 3048 3049 3049 3049 3049 3048 3048 3047 3047 3046 3045 3044 3043 3041 3040 3039 3038 3037 3036 3035 3034 3034 3033 3032 3031 3030 3030 3029 3028 3028 3027 3026 3026 3025 3025 3025 3024 3023 3023 3022 3021 3019 3018 3017 3015 3014 3013 3013 3012 3011 3010 3009 3008 3007 3007 3006 3005 3004 3004 3003 3001 3000 2999 2997 2996 2994 2993 2991 2990 2988 2985 2983 2981 2980 2978 2977 2976 2975 2974 2972
3042 3043 3043 3043 3044 3045 3045 3045 3045 3045 3044 3044 3043 3042 3041 3040 3039 3038 3037 3036 3035 3035 3033 3032 3032 3031 3031 3030 3030 3029 3028 3027 3026 3025 3025 3024 3023 3022 3022 3021 3021 3020 3020 3019 3019 3018 3016 3015 3014 3012 3011 3011 3010 3010 3009 3008 3007 3007 3006 3006 3005 3004 3004 3003 3002 3001 2999 2998 2997 2995 2994 2993 2991 2990 2988 2986 2984 2982 2981 2979 2977 2976 2975 2974 2973
3038 3038 3039 3039 3040 3040 3040 3040 3040 3040 3040 3039 3038 3038 3037 3036 3035 3034 3033 3032 3031 3031 3030 3029 3029 3028 3028 3027 3026 3025 3025 3024 3023 3022 3021 3020 3019 3018 3018 3017 3017 3017 3016 3016 3015 3014 3013 3012 3011 3010 3009 3009 3008 3008 3007 3007 3006 3006 3005 3005 3004 3004 3003 3002 3001 3000 2999 2997 2996 2995 2994 2992 2991 2990 2988 2986 2985 2983 2981 2980 2978 2977 2976 2975 2974
3034 3034 3035 3035 3035 3035 3036 3036 3036 3036 3035 3035 3034 3033 3032 3032 3031 3030 3029 3029 3028 3028 3027 3027 3026 3025 3024 3023 3022 3021 3021 3020 3019 3019 3018 3017 3016 3015 3014 3013 3013 3013 3013 3013 3012 3011 3010 3009 3008 3008 3007 3007 3006 3006 3006 3005 3005 3005 3004 3004 3003 3002 3002 3001 3000 2998 2998 2996 2995 2994 2993 2992 2990 2989 2988 2986 2985 2983 2982 2981 2979 2977 2976 2975 2974
3029 3030 3030 3030 3030 3031 3031 3031 3031 3031 3031 3030 3030 3029 3028 3027 3027 3026 3026 3025 3025 3025 3024 3023 3023 3022 3020 3019 3018 3018 3017 3016 3016 3015 3015 3014 3013 3011 3010 3010 3010 3010 3010 3010 3009 3008 3007 3006 3006 3006 3005 3005 3005 3005 3004 3004 3004 3003 3003 3003 3002 3001 3000 3000 2998 2997 2997 2995 2994 2993 2992 2991 2990 2989 2988 2986 2985 2984 2982 2981 2980 2978 2977 2976 2975
3025 3026 3026 3026 3026 3027 3027 3027 3027 3027 3027 3026 3025 3025 3024 3023 3023 3023 3023 3022 3022 3021 3020 3020 3019 3018 3017 3016 3015 3014 3013 3013 3012 3012 3011 3010 3009 3008 3007 3007 3007 3007 3007 3007 3006 3006 3005 3004 3004 3004 3004 3004 3003 3003 3003 3003 3002 3002 3002 3001 3001 3000 2999 2998 2997 2997 2996 2994 2993 2992 2991 2990 2989 2988 2987 2985 2984 2983 2982 2981 2980 2979 2978 2977 2975
3023 3023 3023 3023 3023 3023 3023 3023 3023 3023 3022 3022 3021 3021 3020 3020 3020 3019 3019 3019 3018 3018 3017 3016 3016 3015 3015 3014 3013 3012 3011 3010 3009 3008 3007 3006 3005 3004 3004 3004 3004 3004 3005 3005 3004 3003 3003 3002 3002 3003 3003 3002 3002 3002 3002 3002 3001 3001 3001 3000 3000 2999 2998 2997 2997 2996 2995 2994 2992 2991 2990 2989 2988 2987 2986 2985 2984 2983 2982 2981 2980 2979 2978 2977 2976
3021 3021 3021 3020 3020 3020 3020 3020 3019 3019 3019 3018 3018 3018 3017 3017 3016 3016 3015 3015 3015 3014 3014 3013 3012 3012 3012 3011 3010 3009 3008 3007 3006 3005 3004 3003 3002 3001 3001 3001 3001 3002 3002 3003 3002 3002 3001 3001 3001 3001 3001 3001 3001 3001 3001 3000 3000 3000 2999 2999 2999 2998 2997 2997 2996 2995 2994 2993 2992 2990 2989 2988 2987 2987 2986 2985 2983 2983 2982 2981 2980 2979 2978 2978 2977
3018 3017 3017 3017 3017 3016 3016 3016 3016 3015 3015 3015 3015 3015 3014 3014 3013 3013 3012 3012 3011 3011 3010 3010 3009 3009 3008 3008 3007 3006 3006 3005 3003 3002 3002 3001 3000 2999 2998 2999 2999 2999 3000 3001 3001 3000 3000 3000 3000 3000 3000 3000 3000 2999 2999 2999 2999 2998 2998 2998 2998 2997 2996 2996 2995 2994 2993 2992 2991 2990 2989 2988 2987 2986 2985 2984 2983 2982 2982 2981 2980 2979 2978 2978 2977
3013 3013 3013 3013 3013 3013 3013 3013 3013 3012 3012 3012 3012 3012 3011 3011 3010 3009 3009 3009 3008 3008 3007 3007 3006 3005 3005 3004 3004 3003 3003 3002 3001 3000 2999 2998 2997 2996 2996 2997 2997 2997 2998 2998 2999 2998 2998 2998 2998 2998 2998 2998 2998 2998 2998 2998 2997 2997 2997 2997 2996 2996 2995 2995 2994 2993 2992 2991 2990 2989 2988 2987 2986 2985 2985 2984 2983 2982 2982 2981 2980 2979 2978 2978 2977
3009 3009 3009 3009 3009 3009 3009 3009 3009 3009 3009 3009 3008 3008 3007 3007 3007 3006 3005 3005 3004 3004 3003 3002 3002 3001 3001 3001 3000 3000 3000 2999 2998 2997 2996 2995 2995 2994 2994 2995 2995 2995 2995 2996 2997 2997 2996 2996 2997 2997 2997 2997 2997 2997 2997 2996 2996 2996 2995 2995 2995 2994 2994 2993 2993 2992 2991 2990 2989 2988 2987 2987 2986 2985 2984 2984 2983 2982 2982 2981 2980 2979 2978 2978 2977